EDT,Max TemperatureF,Mean TemperatureF,Min TemperatureF,Max Dew PointF,MeanDew PointF,Min DewpointF,Max Humidity, Mean Humidity, Min Humidity, Max Sea Level PressureIn, Mean Sea Level PressureIn, Min Sea Level PressureIn, Max VisibilityMiles, Mean VisibilityMiles, Min VisibilityMiles, Max Wind SpeedMPH, Mean Wind SpeedMPH, Max Gust SpeedMPH,PrecipitationIn, CloudCover, Events, WindDirDegrees
2012-10-1,68,65,62,67,64,61,100,97,93,29.83,29.75,29.68,10,4,0,17,9,23,4.66,8,Fog-Rain-Thunderstorm,90
2012-10-2,72,68,63,66,63,59,100,88,68,29.99,29.80,29.70,10,7,1,10,6,16,1.14,7,Rain-Thunderstorm,189
2012-10-3,72,65,59,61,59,54,100,86,61,30.22,30.11,30.01,10,8,0,8,2,,0.00,2,Fog,273
2012-10-4,79,68,57,61,56,50,100,73,37,30.28,30.23,30.20,10,9,4,8,2,,0.01,0,,286
2012-10-5,79,66,55,58,55,50,93,68,37,30.22,30.13,30.04,10,10,9,7,3,,0.00,0,,314
2012-10-6,79,68,57,61,58,55,97,76,52,30.05,29.99,29.93,10,10,6,17,4,23,0.01,1,,285
2012-10-7,68,60,54,57,52,46,94,79,60,30.08,30.02,29.97,10,10,10,15,6,23,0.00,2,,288
2012-10-8,57,54,50,54,48,43,94,81,64,30.18,30.12,30.06,10,10,9,13,9,,0.00,8,,76
2012-10-9,64,56,50,48,47,45,93,78,52,30.19,30.14,30.07,10,10,6,7,4,,0.00,6,,82
2012-10-10,71,59,48,52,49,46,94,77,49,30.17,30.13,30.10,10,10,6,18,5,26,0.00,3,,303
2012-10-11,70,59,48,49,46,42,93,69,36,30.31,30.24,30.17,10,10,10,9,3,,0.00,1,,343
2012-10-12,75,66,59,59,53,47,86,68,59,30.27,30.23,30.19,10,10,10,10,5,,0.00,4,,281
2012-10-13,69,63,57,57,51,47,90,68,51,30.40,30.33,30.27,10,10,10,13,8,20,0.00,1,,78
2012-10-14,72,64,57,63,55,46,90,76,67,30.31,30.20,30.04,10,10,10,12,7,,0.00,7,,96
2012-10-15,73,64,57,63,57,43,100,80,40,30.01,29.94,29.86,10,9,5,17,7,23,0.08,5,Rain-Thunderstorm,259
2012-10-16,71,60,48,49,43,36,86,59,28,30.00,29.94,29.89,10,10,10,7,2,,0.00,0,,263
2012-10-17,72,60,50,49,45,42,86,60,35,29.99,29.91,29.86,10,10,10,8,3,,0.00,0,,140
2012-10-18,70,61,53,61,56,45,100,90,67,29.88,29.84,29.79,10,6,0,9,5,,0.12,6,Fog-Rain,118
2012-10-19,70,59,48,48,38,29,77,51,23,29.83,29.80,29.75,10,10,10,17,7,25,0.00,0,,256
2012-10-20,66,56,46,44,41,36,80,59,42,29.99,29.89,29.81,10,10,10,16,7,22,0.00,0,,279
2012-10-21,71,58,46,52,45,41,93,64,41,30.17,30.11,30.01,10,10,10,7,3,,0.00,0,,269
2012-10-22,75,62,50,51,48,46,89,66,38,30.25,30.18,30.14,10,10,10,6,3,,0.00,0,,75
2012-10-23,75,63,51,52,50,48,89,66,38,30.22,30.16,30.12,10,10,10,6,1,,0.00,0,,164
2012-10-24,78,64,51,54,51,48,89,66,39,30.22,30.15,30.09,10,10,10,6,1,,0.01,0,,104
2012-10-25,75,64,54,57,53,48,80,66,50,30.14,30.10,30.06,10,10,10,8,4,,0.00,1,,63
2012-10-26,78,68,59,59,56,53,90,67,43,30.09,30.02,29.94,10,10,9,9,5,,0.00,2,,69
2012-10-27,72,63,54,57,54,47,87,73,57,29.94,29.83,29.75,10,10,10,10,6,,0.00,2,,313
2012-10-28,57,52,46,50,45,34,89,76,62,29.83,29.78,29.75,10,10,10,18,9,26,0.00,6,Rain,301
2012-10-29,53,48,44,34,30,16,65,52,29,29.83,29.79,29.70,10,10,10,26,15,38,0.00,3,,317
2012-10-30,52,46,41,29,23,17,58,41,26,29.78,29.68,29.63,10,10,10,22,16,33,0.00,1,,290
2012-10-31,60,49,39,25,21,14,57,35,17,29.87,29.82,29.76,10,10,10,21,13,28,0.00,0,,276